HJS-9C

基本信息
目录编号:
68833
目录名称:
HJS-9C
国际标识:
2026-091C
轨道中心:
EARTH
卫星名称:
HJS-9C
卫星全名:
HJS-9C
卫星状态:
在轨 (已飞行7 天)
发射日期:
2026-04-24 UTC
国别 :
中国 (CN)
星等 :
--
轨道信息
数据来源 国际轨道数据
星历时间: 2026-05-01T14:57:03+0800
5小时前
查看轨道信息
半长轴: 6886.102km
偏心率: 0.0009146
轨道倾角: 54.999°
近地点辐角 306.701°
升交点赤经 226.600°
平近点角 53.317°
近地点: 501.666km
远地点: 514.264km
周期: 94.781分钟
每日圈数: 15.192967
详细信息
使用方式:
暂无
2D轨道图
3D轨道图
轨道高度分析图
轨道倾角分析图
轨道综合分析图
查看轨道综合分析图